Time,TemperatureF,DewpointF,PressureIn,WindDirection,WindDirectionDegrees,WindSpeedMPH,WindSpeedGustMPH,Humidity,HourlyPrecipIn,Conditions,Clouds,dailyrainin,SoftwareType,DateUTC
2013-01-21 00:02:00,30.9,14.9,24.27,NW,315,17.0,23.0,51,0.00,,,0.00,meteohub,2013-01-21 07:02:00,
2013-01-21 00:07:00,30.9,14.9,24.26,NW,315,17.0,23.0,51,0.00,,,0.00,meteohub,2013-01-21 07:07:00,
2013-01-21 00:17:00,32.9,14.9,24.25,West,270,23.0,25.0,47,0.00,,,0.00,meteohub,2013-01-21 07:17:00,
2013-01-21 00:27:00,33.3,14.7,24.25,West,270,29.0,29.0,46,0.00,,,0.00,meteohub,2013-01-21 07:27:00,
2013-01-21 00:32:00,33.3,14.7,24.25,West,270,27.0,30.0,46,0.00,,,0.00,meteohub,2013-01-21 07:32:00,
2013-01-21 00:42:00,33.6,14.5,24.24,NW,315,30.0,31.0,45,0.00,,,0.00,meteohub,2013-01-21 07:42:00,
2013-01-21 00:47:00,33.8,14.7,24.24,West,270,34.0,34.0,45,0.00,,,0.00,meteohub,2013-01-21 07:47:00,
2013-01-21 00:52:00,33.8,14.7,24.24,West,270,27.0,34.0,45,0.00,,,0.00,meteohub,2013-01-21 07:52:00,
2013-01-21 00:57:00,33.8,14.7,24.24,West,270,30.0,34.0,45,0.00,,,0.00,meteohub,2013-01-21 07:57:00,
2013-01-21 01:07:00,34.0,14.9,24.23,West,270,28.0,30.0,45,0.00,,,0.00,meteohub,2013-01-21 08:07:00,
2013-01-21 01:12:00,33.8,14.7,24.23,West,270,31.0,31.0,45,0.00,,,0.00,meteohub,2013-01-21 08:12:00,
2013-01-21 01:22:00,32.2,14.7,24.24,NW,315,22.0,31.0,48,0.00,,,0.00,meteohub,2013-01-21 08:22:00,
2013-01-21 01:32:00,30.9,15.4,24.23,NW,315,23.0,33.0,52,0.00,,,0.00,meteohub,2013-01-21 08:32:00,
2013-01-21 01:42:00,30.0,14.9,24.22,NW,315,27.0,31.0,53,0.00,,,0.00,meteohub,2013-01-21 08:42:00,
2013-01-21 01:52:00,29.7,15.1,24.23,NW,315,22.0,29.0,54,0.00,,,0.00,meteohub,2013-01-21 08:52:00,
2013-01-21 02:02:00,29.8,14.7,24.23,WNW,293,25.0,27.0,53,0.00,,,0.00,meteohub,2013-01-21 09:02:00,
2013-01-21 02:07:00,29.8,14.7,24.23,WNW,293,25.0,27.0,53,0.00,,,0.00,meteohub,2013-01-21 09:07:00,
2013-01-21 02:12:00,30.0,14.5,24.23,NW,315,26.0,27.0,52,0.00,,,0.00,meteohub,2013-01-21 09:12:00,
2013-01-21 02:17:00,29.5,14.5,24.23,NW,315,21.0,27.0,53,0.00,,,0.00,meteohub,2013-01-21 09:17:00,
2013-01-21 02:27:00,30.2,14.2,24.24,NW,315,25.0,27.0,51,0.00,,,0.00,meteohub,2013-01-21 09:27:00,
2013-01-21 02:32:00,29.7,14.2,24.24,NW,315,19.0,27.0,52,0.00,,,0.00,meteohub,2013-01-21 09:32:00,
2013-01-21 02:37:00,31.5,14.0,24.24,NW,315,27.0,27.0,48,0.00,,,0.00,meteohub,2013-01-21 09:37:00,
2013-01-21 02:42:00,32.0,13.6,24.23,NW,315,29.0,29.0,46,0.00,,,0.00,meteohub,2013-01-21 09:42:00,
2013-01-21 02:47:00,32.2,13.6,24.24,NW,315,25.0,29.0,46,0.00,,,0.00,meteohub,2013-01-21 09:47:00,
2013-01-21 02:52:00,31.5,13.6,24.25,NW,315,22.0,30.0,47,0.00,,,0.00,meteohub,2013-01-21 09:52:00,
2013-01-21 02:57:00,31.1,13.6,24.25,NW,315,23.0,30.0,48,0.00,,,0.00,meteohub,2013-01-21 09:57:00,
2013-01-21 03:07:00,31.6,14.2,24.24,WNW,293,21.0,25.0,48,0.00,,,0.00,meteohub,2013-01-21 10:07:00,
2013-01-21 03:12:00,32.7,12.7,24.24,NW,315,27.0,28.0,43,0.00,,,0.00,meteohub,2013-01-21 10:12:00,
2013-01-21 03:17:00,32.7,12.7,24.24,NW,315,28.0,30.0,43,0.00,,,0.00,meteohub,2013-01-21 10:17:00,
2013-01-21 03:27:00,32.4,12.9,24.23,West,270,27.0,31.0,44,0.00,,,0.00,meteohub,2013-01-21 10:27:00,
2013-01-21 03:32:00,33.6,11.3,24.23,NW,315,28.0,31.0,39,0.00,,,0.00,meteohub,2013-01-21 10:32:00,
2013-01-21 03:37:00,34.0,11.1,24.23,West,270,32.0,32.0,38,0.00,,,0.00,meteohub,2013-01-21 10:37:00,
2013-01-21 03:47:00,33.6,10.8,24.23,West,270,28.0,34.0,38,0.00,,,0.00,meteohub,2013-01-21 10:47:00,
2013-01-21 03:52:00,33.8,10.2,24.22,NW,315,32.0,34.0,37,0.00,,,0.00,meteohub,2013-01-21 10:52:00,
2013-01-21 03:57:00,34.2,10.0,24.22,West,270,30.0,34.0,36,0.00,,,0.00,meteohub,2013-01-21 10:57:00,
2013-01-21 04:02:00,34.0,9.9,24.22,NW,315,29.0,34.0,36,0.00,,,0.00,meteohub,2013-01-21 11:02:00,
2013-01-21 04:07:00,34.0,9.9,24.22,NW,315,29.0,34.0,36,0.00,,,0.00,meteohub,2013-01-21 11:07:00,
2013-01-21 04:12:00,34.0,9.1,24.22,West,270,30.0,34.0,35,0.00,,,0.00,meteohub,2013-01-21 11:12:00,
2013-01-21 04:17:00,34.3,9.5,24.22,NW,315,32.0,39.0,35,0.00,,,0.00,meteohub,2013-01-21 11:17:00,
2013-01-21 04:22:00,34.2,9.3,24.22,NW,315,31.0,39.0,35,0.00,,,0.00,meteohub,2013-01-21 11:22:00,
2013-01-21 04:32:00,33.8,9.7,24.22,West,270,32.0,37.0,36,0.00,,,0.00,meteohub,2013-01-21 11:32:00,
2013-01-21 04:37:00,34.0,8.6,24.22,NW,315,30.0,37.0,34,0.00,,,0.00,meteohub,2013-01-21 11:37:00,
2013-01-21 04:42:00,34.2,8.1,24.21,NW,315,36.0,36.0,33,0.00,,,0.00,meteohub,2013-01-21 11:42:00,
2013-01-21 04:47:00,34.2,8.8,24.21,West,270,33.0,36.0,34,0.00,,,0.00,meteohub,2013-01-21 11:47:00,
2013-01-21 04:57:00,34.5,8.4,24.21,NW,315,29.0,38.0,33,0.00,,,0.00,meteohub,2013-01-21 11:57:00,
2013-01-21 05:02:00,34.7,8.6,24.21,West,270,30.0,38.0,33,0.00,,,0.00,meteohub,2013-01-21 12:02:00,
2013-01-21 05:07:00,34.7,8.6,24.21,West,270,30.0,38.0,33,0.00,,,0.00,meteohub,2013-01-21 12:07:00,
2013-01-21 05:12:00,35.2,7.0,24.21,West,270,34.0,40.0,30,0.00,,,0.00,meteohub,2013-01-21 12:12:00,
2013-01-21 05:17:00,35.1,7.5,24.20,West,270,34.0,40.0,31,0.00,,,0.00,meteohub,2013-01-21 12:17:00,
2013-01-21 05:22:00,34.9,7.3,24.21,West,270,34.0,42.0,31,0.00,,,0.00,meteohub,2013-01-21 12:22:00,
2013-01-21 05:27:00,35.1,6.1,24.21,NW,315,37.0,42.0,29,0.00,,,0.00,meteohub,2013-01-21 12:27:00,
2013-01-21 05:32:00,34.5,7.7,24.21,West,270,27.0,42.0,32,0.00,,,0.00,meteohub,2013-01-21 12:32:00,
2013-01-21 05:37:00,35.1,6.1,24.21,WNW,293,39.0,39.0,29,0.00,,,0.00,meteohub,2013-01-21 12:37:00,
2013-01-21 05:42:00,34.5,7.0,24.21,West,270,33.0,39.0,31,0.00,,,0.00,meteohub,2013-01-21 12:42:00,
2013-01-21 05:47:00,34.7,7.2,24.21,NW,315,30.0,39.0,31,0.00,,,0.00,meteohub,2013-01-21 12:47:00,
2013-01-21 05:52:00,34.5,7.7,24.21,NW,315,31.0,39.0,32,0.00,,,0.00,meteohub,2013-01-21 12:52:00,
2013-01-21 05:57:00,34.7,7.2,24.21,West,270,34.0,38.0,31,0.00,,,0.00,meteohub,2013-01-21 12:57:00,
2013-01-21 06:02:00,34.2,7.3,24.21,NW,315,26.0,38.0,32,0.00,,,0.00,meteohub,2013-01-21 13:02:00,
2013-01-21 06:07:00,34.2,7.3,24.21,NW,315,26.0,36.0,32,0.00,,,0.00,meteohub,2013-01-21 13:07:00,
2013-01-21 06:12:00,34.0,7.2,24.21,West,270,33.0,36.0,32,0.00,,,0.00,meteohub,2013-01-21 13:12:00,
2013-01-21 06:17:00,34.3,6.8,24.21,West,270,28.0,34.0,31,0.00,,,0.00,meteohub,2013-01-21 13:17:00,
2013-01-21 06:22:00,34.7,7.2,24.21,West,270,31.0,40.0,31,0.00,,,0.00,meteohub,2013-01-21 13:22:00,
2013-01-21 06:27:00,34.9,5.9,24.21,NW,315,36.0,40.0,29,0.00,,,0.00,meteohub,2013-01-21 13:27:00,
2013-01-21 06:32:00,35.1,5.2,24.20,West,270,34.0,40.0,28,0.00,,,0.00,meteohub,2013-01-21 13:32:00,
2013-01-21 06:37:00,34.7,5.7,24.21,West,270,31.0,41.0,29,0.00,,,0.00,meteohub,2013-01-21 13:37:00,
2013-01-21 06:42:00,34.3,6.1,24.19,West,270,32.0,41.0,30,0.00,,,0.00,meteohub,2013-01-21 13:42:00,
2013-01-21 06:47:00,34.5,6.3,24.20,West,270,33.0,41.0,30,0.00,,,0.00,meteohub,2013-01-21 13:47:00,
2013-01-21 06:52:00,34.9,5.0,24.20,NW,315,33.0,36.0,28,0.00,,,0.00,meteohub,2013-01-21 13:52:00,
2013-01-21 06:57:00,34.7,5.7,24.20,NW,315,28.0,36.0,29,0.00,,,0.00,meteohub,2013-01-21 13:57:00,
2013-01-21 07:02:00,35.6,4.8,24.20,West,270,34.0,40.0,27,0.00,,,0.00,meteohub,2013-01-21 14:02:00,
2013-01-21 07:07:00,35.6,4.8,24.20,West,270,34.0,40.0,27,0.00,,,0.00,meteohub,2013-01-21 14:07:00,
2013-01-21 07:12:00,36.1,3.7,24.20,NW,315,33.0,36.0,25,0.00,,,0.00,meteohub,2013-01-21 14:12:00,
2013-01-21 07:17:00,35.2,5.4,24.20,West,270,33.0,40.0,28,0.00,,,0.00,meteohub,2013-01-21 14:17:00,
2013-01-21 07:22:00,35.6,4.8,24.20,NW,315,27.0,40.0,27,0.00,,,0.00,meteohub,2013-01-21 14:22:00,
2013-01-21 07:27:00,35.6,4.8,24.20,NW,315,36.0,40.0,27,0.00,,,0.00,meteohub,2013-01-21 14:27:00,
2013-01-21 07:32:00,36.3,3.9,24.20,NW,315,32.0,36.0,25,0.00,,,0.00,meteohub,2013-01-21 14:32:00,
2013-01-21 07:37:00,36.3,3.9,24.19,NW,315,34.0,36.0,25,0.00,,,0.00,meteohub,2013-01-21 14:37:00,
2013-01-21 07:42:00,36.0,4.5,24.19,West,270,31.0,40.0,26,0.00,,,0.00,meteohub,2013-01-21 14:42:00,
2013-01-21 07:47:00,36.3,3.9,24.19,West,270,33.0,40.0,25,0.00,,,0.00,meteohub,2013-01-21 14:47:00,
2013-01-21 07:52:00,35.4,4.8,24.19,NW,315,32.0,40.0,27,0.00,,,0.00,meteohub,2013-01-21 14:52:00,
2013-01-21 07:57:00,35.4,4.8,24.19,West,270,31.0,36.0,27,0.00,,,0.00,meteohub,2013-01-21 14:57:00,
2013-01-21 08:02:00,35.8,4.3,24.19,West,270,36.0,36.0,26,0.00,,,0.00,meteohub,2013-01-21 15:02:00,
2013-01-21 08:07:00,35.8,4.3,24.19,West,270,36.0,36.0,26,0.00,,,0.00,meteohub,2013-01-21 15:07:00,
2013-01-21 08:12:00,35.8,4.3,24.19,West,270,36.0,36.0,26,0.00,,,0.00,meteohub,2013-01-21 15:12:00,
2013-01-21 08:17:00,36.3,3.9,24.19,NW,315,34.0,42.0,25,0.00,,,0.00,meteohub,2013-01-21 15:17:00,
2013-01-21 08:22:00,36.0,4.5,24.19,West,270,33.0,42.0,26,0.00,,,0.00,meteohub,2013-01-21 15:22:00,
2013-01-21 08:27:00,36.0,3.6,24.19,West,270,33.0,42.0,25,0.00,,,0.00,meteohub,2013-01-21 15:27:00,
2013-01-21 08:32:00,36.1,2.8,24.19,West,270,34.0,41.0,24,0.00,,,0.00,meteohub,2013-01-21 15:32:00,
2013-01-21 08:37:00,36.5,3.2,24.19,West,270,30.0,36.0,24,0.00,,,0.00,meteohub,2013-01-21 15:37:00,
2013-01-21 08:42:00,36.1,2.8,24.19,NW,315,31.0,36.0,24,0.00,,,0.00,meteohub,2013-01-21 15:42:00,
2013-01-21 08:47:00,36.1,3.7,24.20,NW,315,30.0,36.0,25,0.00,,,0.00,meteohub,2013-01-21 15:47:00,
2013-01-21 08:52:00,36.1,2.8,24.19,NW,315,33.0,38.0,24,0.00,,,0.00,meteohub,2013-01-21 15:52:00,
2013-01-21 08:57:00,36.3,3.0,24.19,West,270,31.0,38.0,24,0.00,,,0.00,meteohub,2013-01-21 15:57:00,
2013-01-21 09:02:00,36.3,3.0,24.20,West,270,36.0,38.0,24,0.00,,,0.00,meteohub,2013-01-21 16:02:00,
2013-01-21 09:07:00,36.3,3.0,24.20,West,270,36.0,36.0,24,0.00,,,0.00,meteohub,2013-01-21 16:07:00,
2013-01-21 09:12:00,36.9,2.5,24.20,West,270,32.0,36.0,23,0.00,,,0.00,meteohub,2013-01-21 16:12:00,
2013-01-21 09:17:00,36.9,2.5,24.20,NW,315,32.0,36.0,23,0.00,,,0.00,meteohub,2013-01-21 16:17:00,
2013-01-21 09:22:00,36.7,3.2,24.19,NW,315,34.0,36.0,24,0.00,,,0.00,meteohub,2013-01-21 16:22:00,
2013-01-21 09:27:00,36.9,2.5,24.19,West,270,35.0,36.0,23,0.00,,,0.00,meteohub,2013-01-21 16:27:00,
2013-01-21 09:32:00,36.9,3.4,24.19,NW,315,36.0,37.0,24,0.00,,,0.00,meteohub,2013-01-21 16:32:00,
2013-01-21 09:37:00,36.1,6.1,24.19,NW,315,30.0,38.0,28,0.00,,,0.00,meteohub,2013-01-21 16:37:00,
2013-01-21 09:42:00,36.0,4.5,24.20,NW,315,34.0,38.0,26,0.00,,,0.00,meteohub,2013-01-21 16:42:00,
2013-01-21 09:47:00,36.0,5.2,24.19,NW,315,36.0,38.0,27,0.00,,,0.00,meteohub,2013-01-21 16:47:00,
2013-01-21 09:52:00,36.5,3.2,24.19,NW,315,36.0,38.0,24,0.00,,,0.00,meteohub,2013-01-21 16:52:00,
2013-01-21 09:57:00,36.3,3.9,24.20,West,270,37.0,38.0,25,0.00,,,0.00,meteohub,2013-01-21 16:57:00,
2013-01-21 10:02:00,36.3,3.0,24.20,West,270,43.0,43.0,24,0.01,,,0.01,meteohub,2013-01-21 17:02:00,
2013-01-21 10:07:00,36.3,3.0,24.19,West,270,43.0,43.0,24,0.01,,,0.01,meteohub,2013-01-21 17:07:00,
2013-01-21 10:12:00,36.5,3.2,24.19,West,270,36.0,43.0,24,0.01,,,0.01,meteohub,2013-01-21 17:12:00,
2013-01-21 10:17:00,36.9,2.5,24.19,NW,315,35.0,43.0,23,0.01,,,0.01,meteohub,2013-01-21 17:17:00,
2013-01-21 10:22:00,36.9,2.5,24.19,West,270,36.0,43.0,23,0.01,,,0.01,meteohub,2013-01-21 17:22:00,
2013-01-21 10:27:00,36.3,3.9,24.20,NW,315,34.0,39.0,25,0.01,,,0.01,meteohub,2013-01-21 17:27:00,
2013-01-21 10:32:00,36.7,3.2,24.19,NW,315,39.0,39.0,24,0.01,,,0.01,meteohub,2013-01-21 17:32:00,
2013-01-21 10:37:00,36.9,3.4,24.19,NW,315,36.0,39.0,24,0.01,,,0.01,meteohub,2013-01-21 17:37:00,
2013-01-21 10:42:00,37.2,2.8,24.19,NW,315,40.0,40.0,23,0.01,,,0.01,meteohub,2013-01-21 17:42:00,
2013-01-21 10:47:00,36.9,3.4,24.20,West,270,38.0,41.0,24,0.01,,,0.01,meteohub,2013-01-21 17:47:00,
2013-01-21 10:52:00,37.0,3.6,24.20,West,270,37.0,41.0,24,0.01,,,0.01,meteohub,2013-01-21 17:52:00,
2013-01-21 10:57:00,36.7,5.0,24.19,West,270,38.0,41.0,26,0.01,,,0.01,meteohub,2013-01-21 17:57:00,
2013-01-21 11:02:00,37.2,3.7,24.19,NW,315,40.0,40.0,24,0.00,,,0.01,meteohub,2013-01-21 18:02:00,
2013-01-21 11:07:00,37.2,3.7,24.19,NW,315,40.0,40.0,24,0.00,,,0.01,meteohub,2013-01-21 18:07:00,
2013-01-21 11:12:00,36.9,3.4,24.19,NW,315,41.0,41.0,24,0.00,,,0.01,meteohub,2013-01-21 18:12:00,
2013-01-21 11:17:00,37.4,3.0,24.19,West,270,35.0,41.0,23,0.00,,,0.01,meteohub,2013-01-21 18:17:00,
2013-01-21 11:22:00,38.1,3.6,24.19,West,270,36.0,41.0,23,0.00,,,0.01,meteohub,2013-01-21 18:22:00,
2013-01-21 11:27:00,38.8,2.3,24.19,West,270,36.0,41.0,21,0.00,,,0.01,meteohub,2013-01-21 18:27:00,
2013-01-21 11:32:00,38.3,2.8,24.18,West,270,35.0,39.0,22,0.00,,,0.01,meteohub,2013-01-21 18:32:00,
2013-01-21 11:37:00,38.1,2.7,24.19,West,270,36.0,40.0,22,0.00,,,0.01,meteohub,2013-01-21 18:37:00,
2013-01-21 11:42:00,38.7,5.0,24.18,West,270,31.0,40.0,24,0.00,,,0.01,meteohub,2013-01-21 18:42:00,
2013-01-21 11:47:00,39.2,2.5,24.18,West,270,38.0,40.0,21,0.00,,,0.01,meteohub,2013-01-21 18:47:00,
2013-01-21 11:52:00,38.8,4.1,24.19,West,270,34.0,38.0,23,0.00,,,0.01,meteohub,2013-01-21 18:52:00,
2013-01-21 11:57:00,38.5,2.8,24.18,West,270,34.0,38.0,22,0.00,,,0.01,meteohub,2013-01-21 18:57:00,
2013-01-21 12:02:00,38.7,3.0,24.18,NW,315,33.0,38.0,22,0.00,,,0.01,meteohub,2013-01-21 19:02:00,
2013-01-21 12:07:00,38.7,3.0,24.18,NW,315,33.0,37.0,22,0.00,,,0.01,meteohub,2013-01-21 19:07:00,
2013-01-21 12:12:00,39.0,3.4,24.18,West,270,34.0,37.0,22,0.00,,,0.01,meteohub,2013-01-21 19:12:00,
2013-01-21 12:17:00,39.9,3.2,24.18,West,270,31.0,34.0,21,0.00,,,0.01,meteohub,2013-01-21 19:17:00,
2013-01-21 12:22:00,39.4,3.7,24.18,NW,315,33.0,35.0,22,0.00,,,0.01,meteohub,2013-01-21 19:22:00,
2013-01-21 12:27:00,39.6,3.9,24.18,West,270,30.0,35.0,22,0.00,,,0.01,meteohub,2013-01-21 19:27:00,
2013-01-21 12:32:00,39.7,3.9,24.17,West,270,32.0,34.0,22,0.00,,,0.01,meteohub,2013-01-21 19:32:00,
2013-01-21 12:37:00,39.9,4.1,24.18,West,270,32.0,34.0,22,0.00,,,0.01,meteohub,2013-01-21 19:37:00,
2013-01-21 12:42:00,40.3,3.4,24.17,North,0,34.0,34.0,21,0.00,,,0.01,meteohub,2013-01-21 19:42:00,
2013-01-21 12:47:00,40.1,4.3,24.16,NW,315,38.0,38.0,22,0.00,,,0.01,meteohub,2013-01-21 19:47:00,
2013-01-21 12:52:00,39.6,4.8,24.17,West,270,36.0,40.0,23,0.00,,,0.01,meteohub,2013-01-21 19:52:00,
2013-01-21 12:57:00,40.1,3.2,24.16,West,270,42.0,42.0,21,0.00,,,0.01,meteohub,2013-01-21 19:57:00,
2013-01-21 13:02:00,40.1,4.3,24.16,West,270,36.0,42.0,22,0.00,,,0.01,meteohub,2013-01-21 20:02:00,
2013-01-21 13:07:00,40.1,4.3,24.15,West,270,36.0,42.0,22,0.00,,,0.01,meteohub,2013-01-21 20:07:00,
2013-01-21 13:12:00,39.6,4.8,24.16,West,270,37.0,42.0,23,0.00,,,0.01,meteohub,2013-01-21 20:12:00,
2013-01-21 13:17:00,39.7,3.0,24.15,West,270,36.0,38.0,21,0.00,,,0.01,meteohub,2013-01-21 20:17:00,
2013-01-21 13:22:00,39.9,4.1,24.16,West,270,36.0,38.0,22,0.00,,,0.01,meteohub,2013-01-21 20:22:00,
2013-01-21 13:27:00,39.9,3.2,24.15,West,270,35.0,39.0,21,0.00,,,0.01,meteohub,2013-01-21 20:27:00,
2013-01-21 13:32:00,40.3,4.5,24.16,NW,315,31.0,39.0,22,0.00,,,0.01,meteohub,2013-01-21 20:32:00,
2013-01-21 13:37:00,40.5,4.6,24.15,NW,315,33.0,39.0,22,0.00,,,0.01,meteohub,2013-01-21 20:37:00,
2013-01-21 13:42:00,40.5,1.4,24.15,West,270,35.0,38.0,19,0.00,,,0.01,meteohub,2013-01-21 20:42:00,
2013-01-21 13:47:00,40.3,3.4,24.15,West,270,34.0,38.0,21,0.00,,,0.01,meteohub,2013-01-21 20:47:00,
2013-01-21 13:52:00,40.6,3.7,24.15,West,270,33.0,37.0,21,0.00,,,0.01,meteohub,2013-01-21 20:52:00,
2013-01-21 13:57:00,40.8,3.9,24.14,West,270,34.0,37.0,21,0.00,,,0.01,meteohub,2013-01-21 20:57:00,
2013-01-21 14:02:00,40.8,3.9,24.14,West,270,37.0,37.0,21,0.00,,,0.01,meteohub,2013-01-21 21:02:00,
2013-01-21 14:12:00,41.0,4.1,24.15,West,270,30.0,37.0,21,0.00,,,0.01,meteohub,2013-01-21 21:12:00,
2013-01-21 14:17:00,41.5,3.4,24.14,West,270,30.0,37.0,20,0.00,,,0.01,meteohub,2013-01-21 21:17:00,
2013-01-21 14:27:00,41.7,4.6,24.14,West,270,32.0,36.0,21,0.00,,,0.01,meteohub,2013-01-21 21:27:00,
2013-01-21 14:32:00,41.5,3.4,24.14,West,270,35.0,37.0,20,0.00,,,0.01,meteohub,2013-01-21 21:32:00,
2013-01-21 14:37:00,41.9,1.4,24.14,West,270,33.0,37.0,18,0.00,,,0.01,meteohub,2013-01-21 21:37:00,
2013-01-21 14:42:00,41.7,2.5,24.14,West,270,32.0,39.0,19,0.00,,,0.01,meteohub,2013-01-21 21:42:00,
2013-01-21 14:47:00,41.5,1.2,24.14,NW,315,36.0,39.0,18,0.00,,,0.01,meteohub,2013-01-21 21:47:00,
2013-01-21 14:52:00,41.2,0.9,24.14,NW,315,38.0,39.0,18,0.00,,,0.01,meteohub,2013-01-21 21:52:00,
2013-01-21 14:57:00,41.0,3.0,24.14,West,270,34.0,39.0,20,0.00,,,0.01,meteohub,2013-01-21 21:57:00,
2013-01-21 15:02:00,41.2,1.9,24.15,West,270,36.0,39.0,19,0.00,,,0.01,meteohub,2013-01-21 22:02:00,
2013-01-21 15:07:00,41.2,1.9,24.14,West,270,36.0,40.0,19,0.00,,,0.01,meteohub,2013-01-21 22:07:00,
2013-01-21 15:12:00,41.4,2.1,24.14,West,270,36.0,40.0,19,0.00,,,0.01,meteohub,2013-01-21 22:12:00,
2013-01-21 15:17:00,41.0,1.9,24.14,NW,315,35.0,38.0,19,0.00,,,0.01,meteohub,2013-01-21 22:17:00,
2013-01-21 15:22:00,41.0,1.9,24.14,NNW,338,37.0,41.0,19,0.00,,,0.01,meteohub,2013-01-21 22:22:00,
2013-01-21 15:27:00,41.0,1.9,24.14,NW,315,34.0,41.0,19,0.00,,,0.01,meteohub,2013-01-21 22:27:00,
2013-01-21 15:32:00,40.8,1.8,24.14,West,270,35.0,41.0,19,0.00,,,0.01,meteohub,2013-01-21 22:32:00,
2013-01-21 15:37:00,40.1,3.2,24.14,West,270,34.0,39.0,21,0.00,,,0.01,meteohub,2013-01-21 22:37:00,
2013-01-21 15:42:00,41.0,1.9,24.14,NW,315,36.0,40.0,19,0.00,,,0.01,meteohub,2013-01-21 22:42:00,
2013-01-21 15:47:00,41.0,1.9,24.14,NW,315,36.0,41.0,19,0.00,,,0.01,meteohub,2013-01-21 22:47:00,
2013-01-21 15:52:00,40.8,0.5,24.13,NW,315,38.0,41.0,18,0.00,,,0.01,meteohub,2013-01-21 22:52:00,
2013-01-21 15:57:00,40.3,1.2,24.14,West,270,38.0,41.0,19,0.00,,,0.01,meteohub,2013-01-21 22:57:00,
2013-01-21 16:02:00,40.5,0.3,24.13,West,270,37.0,41.0,18,0.00,,,0.01,meteohub,2013-01-21 23:02:00,
2013-01-21 16:07:00,40.5,0.3,24.13,West,270,37.0,41.0,18,0.00,,,0.01,meteohub,2013-01-21 23:07:00,
2013-01-21 16:12:00,40.3,1.2,24.13,West,270,40.0,42.0,19,0.00,,,0.01,meteohub,2013-01-21 23:12:00,
2013-01-21 16:17:00,40.6,0.5,24.12,West,270,40.0,42.0,18,0.00,,,0.01,meteohub,2013-01-21 23:17:00,
2013-01-21 16:22:00,40.6,1.6,24.12,West,270,39.0,42.0,19,0.00,,,0.01,meteohub,2013-01-21 23:22:00,
2013-01-21 16:27:00,40.5,1.4,24.12,NW,315,39.0,42.0,19,0.00,,,0.01,meteohub,2013-01-21 23:27:00,
2013-01-21 16:32:00,40.5,1.4,24.11,NW,315,39.0,42.0,19,0.00,,,0.01,meteohub,2013-01-21 23:32:00,
2013-01-21 16:37:00,40.5,-0.9,24.12,West,270,41.0,42.0,17,0.00,,,0.01,meteohub,2013-01-21 23:37:00,
2013-01-21 16:42:00,40.1,0.0,24.12,NW,315,34.0,42.0,18,0.00,,,0.01,meteohub,2013-01-21 23:42:00,
2013-01-21 16:47:00,40.5,0.3,24.12,West,270,40.0,44.0,18,0.00,,,0.01,meteohub,2013-01-21 23:47:00,
2013-01-21 16:52:00,39.9,1.0,24.12,West,270,38.0,44.0,19,0.00,,,0.01,meteohub,2013-01-21 23:52:00,
2013-01-21 16:57:00,40.1,1.0,24.12,West,270,43.0,49.0,19,0.00,,,0.01,meteohub,2013-01-21 23:57:00,
2013-01-21 17:02:00,39.9,-0.2,24.11,West,270,43.0,49.0,18,0.00,,,0.01,meteohub,2013-01-22 00:02:00,
2013-01-21 17:07:00,39.9,-0.2,24.11,West,270,43.0,49.0,18,0.00,,,0.00,meteohub,2013-01-22 00:07:00,
2013-01-21 17:12:00,39.4,0.5,24.11,West,270,44.0,46.0,19,0.00,,,0.00,meteohub,2013-01-22 00:12:00,
2013-01-21 17:17:00,39.4,0.5,24.11,West,270,40.0,49.0,19,0.00,,,0.00,meteohub,2013-01-22 00:17:00,
2013-01-21 17:22:00,39.6,-0.4,24.11,West,270,40.0,49.0,18,0.00,,,0.00,meteohub,2013-01-22 00:22:00,
2013-01-21 17:27:00,39.6,0.7,24.11,West,270,43.0,49.0,19,0.00,,,0.00,meteohub,2013-01-22 00:27:00,
2013-01-21 17:32:00,39.6,0.7,24.11,West,270,43.0,48.0,19,0.00,,,0.00,meteohub,2013-01-22 00:32:00,
2013-01-21 17:37:00,39.6,-0.4,24.11,NW,315,43.0,47.0,18,0.01,,,0.01,meteohub,2013-01-22 00:37:00,
2013-01-21 17:42:00,40.3,-1.1,24.10,West,270,43.0,47.0,17,0.01,,,0.01,meteohub,2013-01-22 00:42:00,
2013-01-21 17:47:00,40.5,-2.2,24.11,West,270,43.0,47.0,16,0.01,,,0.01,meteohub,2013-01-22 00:47:00,
2013-01-21 17:52:00,40.1,-1.3,24.11,West,270,43.0,46.0,17,0.01,,,0.01,meteohub,2013-01-22 00:52:00,
2013-01-21 17:57:00,39.9,-0.2,24.11,West,270,36.0,48.0,18,0.01,,,0.01,meteohub,2013-01-22 00:57:00,
2013-01-21 18:02:00,39.7,-0.4,24.10,West,270,39.0,48.0,18,0.01,,,0.01,meteohub,2013-01-22 01:02:00,
2013-01-21 18:07:00,39.7,-0.4,24.11,West,270,39.0,48.0,18,0.01,,,0.01,meteohub,2013-01-22 01:07:00,
2013-01-21 18:12:00,39.9,-0.2,24.11,NW,315,45.0,48.0,18,0.01,,,0.01,meteohub,2013-01-22 01:12:00,
2013-01-21 18:17:00,40.3,-1.1,24.11,NW,315,43.0,48.0,17,0.01,,,0.01,meteohub,2013-01-22 01:17:00,
2013-01-21 18:22:00,39.7,0.9,24.12,NW,315,43.0,48.0,19,0.01,,,0.01,meteohub,2013-01-22 01:22:00,
2013-01-21 18:27:00,39.6,0.7,24.12,NW,315,35.0,47.0,19,0.01,,,0.01,meteohub,2013-01-22 01:27:00,
2013-01-21 18:32:00,39.9,-0.2,24.11,NW,315,47.0,47.0,18,0.01,,,0.01,meteohub,2013-01-22 01:32:00,
2013-01-21 18:37:00,40.1,-1.3,24.11,West,270,46.0,49.0,17,0.01,,,0.02,meteohub,2013-01-22 01:37:00,
2013-01-21 18:42:00,40.1,0.0,24.11,West,270,45.0,49.0,18,0.01,,,0.02,meteohub,2013-01-22 01:42:00,
2013-01-21 18:52:00,39.9,1.0,24.11,NW,315,45.0,49.0,19,0.02,,,0.04,meteohub,2013-01-22 01:52:00,
2013-01-21 18:57:00,39.6,1.8,24.12,NW,315,46.0,49.0,20,0.02,,,0.04,meteohub,2013-01-22 01:57:00,
2013-01-21 19:02:00,39.4,1.6,24.11,NW,315,42.0,48.0,20,0.02,,,0.04,meteohub,2013-01-22 02:02:00,
2013-01-21 19:07:00,39.4,1.6,24.11,NW,315,42.0,46.0,20,0.02,,,0.04,meteohub,2013-01-22 02:07:00,
2013-01-21 19:12:00,39.6,1.8,24.11,NW,315,42.0,49.0,20,0.02,,,0.04,meteohub,2013-01-22 02:12:00,
2013-01-21 19:17:00,40.1,0.0,24.11,West,270,45.0,50.0,18,0.02,,,0.04,meteohub,2013-01-22 02:17:00,
2013-01-21 19:22:00,39.9,-1.3,24.11,NW,315,44.0,50.0,17,0.02,,,0.04,meteohub,2013-01-22 02:22:00,
2013-01-21 19:27:00,39.7,-0.4,24.12,West,270,38.0,46.0,18,0.02,,,0.04,meteohub,2013-01-22 02:27:00,
2013-01-21 19:32:00,39.6,0.7,24.12,NW,315,39.0,45.0,19,0.01,,,0.04,meteohub,2013-01-22 02:32:00,
2013-01-21 19:37:00,39.4,0.5,24.12,NW,315,40.0,44.0,19,0.01,,,0.04,meteohub,2013-01-22 02:37:00,
2013-01-21 19:42:00,39.0,1.4,24.12,West,270,42.0,43.0,20,0.01,,,0.04,meteohub,2013-01-22 02:42:00,
2013-01-21 19:47:00,39.0,0.1,24.11,NW,315,44.0,44.0,19,0.00,,,0.04,meteohub,2013-01-22 02:47:00,
2013-01-21 19:52:00,39.4,0.5,24.12,West,270,41.0,44.0,19,0.00,,,0.04,meteohub,2013-01-22 02:52:00,
2013-01-21 19:57:00,39.2,0.3,24.11,West,270,42.0,44.0,19,0.00,,,0.04,meteohub,2013-01-22 02:57:00,
2013-01-21 20:02:00,39.4,-0.6,24.11,West,270,43.0,46.0,18,0.00,,,0.04,meteohub,2013-01-22 03:02:00,
2013-01-21 20:07:00,39.4,-0.6,24.11,West,270,43.0,46.0,18,0.00,,,0.04,meteohub,2013-01-22 03:07:00,
2013-01-21 20:12:00,39.0,0.1,24.11,NW,315,39.0,46.0,19,0.00,,,0.04,meteohub,2013-01-22 03:12:00,
2013-01-21 20:17:00,39.2,0.3,24.10,West,270,43.0,48.0,19,0.00,,,0.04,meteohub,2013-01-22 03:17:00,
2013-01-21 20:22:00,39.2,-0.8,24.11,WNW,293,43.0,48.0,18,0.01,,,0.05,meteohub,2013-01-22 03:22:00,
2013-01-21 20:27:00,39.2,-0.8,24.10,West,270,44.0,48.0,18,0.01,,,0.05,meteohub,2013-01-22 03:27:00,
2013-01-21 20:32:00,39.2,-2.0,24.11,North,0,46.0,48.0,17,0.01,,,0.05,meteohub,2013-01-22 03:32:00,
2013-01-21 20:37:00,38.8,-1.1,24.10,NW,315,38.0,48.0,18,0.01,,,0.05,meteohub,2013-01-22 03:37:00,
2013-01-21 20:42:00,38.5,-0.2,24.12,NW,315,39.0,46.0,19,0.01,,,0.05,meteohub,2013-01-22 03:42:00,
2013-01-21 20:47:00,39.2,-3.3,24.11,NW,315,44.0,46.0,16,0.01,,,0.05,meteohub,2013-01-22 03:47:00,
2013-01-21 20:52:00,39.0,-2.2,24.11,NW,315,40.0,46.0,17,0.01,,,0.05,meteohub,2013-01-22 03:52:00,
2013-01-21 20:57:00,38.7,-1.3,24.12,NW,315,41.0,46.0,18,0.01,,,0.05,meteohub,2013-01-22 03:57:00,
2013-01-21 21:02:00,38.7,-1.3,24.12,NW,315,39.0,46.0,18,0.01,,,0.05,meteohub,2013-01-22 04:02:00,
2013-01-21 21:07:00,38.7,-1.3,24.12,NW,315,39.0,46.0,18,0.01,,,0.05,meteohub,2013-01-22 04:07:00,
2013-01-21 21:12:00,38.7,-1.3,24.12,NW,315,42.0,46.0,18,0.01,,,0.05,meteohub,2013-01-22 04:12:00,
2013-01-21 21:17:00,38.5,-1.3,24.12,NW,315,43.0,43.0,18,0.01,,,0.05,meteohub,2013-01-22 04:17:00,
2013-01-21 21:22:00,37.9,-0.8,24.11,West,270,38.0,51.0,19,0.01,,,0.06,meteohub,2013-01-22 04:22:00,
2013-01-21 21:27:00,38.1,-0.6,24.12,NW,315,40.0,51.0,19,0.01,,,0.06,meteohub,2013-01-22 04:27:00,
2013-01-21 21:32:00,38.3,-2.7,24.12,NW,315,46.0,51.0,17,0.01,,,0.06,meteohub,2013-01-22 04:32:00,
2013-01-21 21:37:00,38.3,-1.5,24.11,NW,315,42.0,46.0,18,0.01,,,0.06,meteohub,2013-01-22 04:37:00,
2013-01-21 21:42:00,38.1,-0.6,24.12,NW,315,39.0,46.0,19,0.01,,,0.06,meteohub,2013-01-22 04:42:00,
2013-01-21 21:47:00,37.6,0.1,24.11,NW,315,38.0,46.0,20,0.01,,,0.06,meteohub,2013-01-22 04:47:00,
2013-01-21 21:52:00,38.1,-1.7,24.11,West,270,44.0,44.0,18,0.01,,,0.06,meteohub,2013-01-22 04:52:00,
2013-01-21 21:57:00,38.3,-1.5,24.12,West,270,40.0,46.0,18,0.01,,,0.06,meteohub,2013-01-22 04:57:00,
2013-01-21 22:02:00,37.9,0.5,24.12,NW,315,36.0,46.0,20,0.01,,,0.06,meteohub,2013-01-22 05:02:00,
2013-01-21 22:07:00,37.9,0.5,24.12,NW,315,36.0,46.0,20,0.01,,,0.06,meteohub,2013-01-22 05:07:00,
2013-01-21 22:17:00,38.7,-3.6,24.12,NW,315,43.0,43.0,16,0.00,,,0.06,meteohub,2013-01-22 05:17:00,
2013-01-21 22:22:00,37.6,-0.9,24.12,NW,315,40.0,43.0,19,0.00,,,0.06,meteohub,2013-01-22 05:22:00,
2013-01-21 22:27:00,37.9,-3.1,24.12,WNW,293,42.0,43.0,17,0.00,,,0.06,meteohub,2013-01-22 05:27:00,
2013-01-21 22:37:00,37.8,-2.0,24.12,WNW,293,40.0,44.0,18,0.00,,,0.06,meteohub,2013-01-22 05:37:00,
2013-01-21 22:42:00,37.8,-0.8,24.13,NW,315,34.0,44.0,19,0.00,,,0.06,meteohub,2013-01-22 05:42:00,
2013-01-21 22:47:00,37.8,-3.1,24.12,NW,315,40.0,44.0,17,0.00,,,0.06,meteohub,2013-01-22 05:47:00,
2013-01-21 22:52:00,37.4,-2.2,24.12,NW,315,36.0,44.0,18,0.00,,,0.06,meteohub,2013-01-22 05:52:00,
2013-01-21 22:57:00,37.0,-1.5,24.12,West,270,34.0,44.0,19,0.00,,,0.06,meteohub,2013-01-22 05:57:00,
2013-01-21 23:02:00,37.2,-2.4,24.12,West,270,37.0,40.0,18,0.00,,,0.06,meteohub,2013-01-22 06:02:00,
2013-01-21 23:07:00,37.2,-2.4,24.13,West,270,37.0,40.0,18,0.00,,,0.06,meteohub,2013-01-22 06:07:00,
2013-01-21 23:12:00,37.4,-2.2,24.13,NW,315,37.0,41.0,18,0.00,,,0.06,meteohub,2013-01-22 06:12:00,
2013-01-21 23:17:00,36.7,-0.6,24.14,NW,315,28.0,41.0,20,0.00,,,0.06,meteohub,2013-01-22 06:17:00,
2013-01-21 23:22:00,37.2,-3.6,24.13,NW,315,36.0,41.0,17,0.00,,,0.06,meteohub,2013-01-22 06:22:00,
2013-01-21 23:27:00,37.2,-2.4,24.14,NW,315,34.0,40.0,18,0.00,,,0.06,meteohub,2013-01-22 06:27:00,
2013-01-21 23:32:00,36.7,-1.7,24.14,NW,315,35.0,41.0,19,0.00,,,0.06,meteohub,2013-01-22 06:32:00,
2013-01-21 23:37:00,36.1,0.0,24.14,NW,315,31.0,41.0,21,0.00,,,0.06,meteohub,2013-01-22 06:37:00,
2013-01-21 23:42:00,36.3,-0.9,24.14,NW,315,36.0,41.0,20,0.00,,,0.06,meteohub,2013-01-22 06:42:00,
2013-01-21 23:47:00,36.9,-1.7,24.14,NW,315,34.0,36.0,19,0.00,,,0.06,meteohub,2013-01-22 06:47:00,
2013-01-21 23:52:00,35.8,-0.4,24.14,NW,315,29.0,36.0,21,0.00,,,0.06,meteohub,2013-01-22 06:52:00,
2013-01-21 23:57:00,35.6,-0.6,24.14,NW,315,30.0,36.0,21,0.00,,,0.06,meteohub,2013-01-22 06:57:00,